Theta_e
288 289 288 287 287 288 286 287 283 285 286 290 293 294 297 298 298 303 303 305 305 305 308 313 318 330 335 335 336 335 327 324 322 320 318 315 313 312 310 306 304 304 302 301
286 289 289 286 288 289 288 291 289 290 288 295 296 297 296 299 302 304 304 306 308 309 317 315 323 328 330 330 329 326 322 319 316 313 312 309 307 304 302 300 299 299 298 299
280 287 285 282 287 286 286 289 289 287 289 294 293 294 294 295 297 301 305 305 307 313 319 322 325 327 326 325 324 321 317 315 313 310 308 306 303 299 296 295 295 295 296 299
281 282 268 285 290 289 286 288 291 289 291 292 293 295 296 296 297 300 306 307 312 319 322 324 324 323 322 321 319 316 313 311 309 306 303 300 297 295 294 294 293 293 293 294
280 279 281 288 288 287 284 285 290 288 290 291 293 295 293 299 304 306 310 307 311 319 319 319 318 318 318 316 315 313 311 309 307 304 299 297 295 294 292 291 291 290 291 291
281 278 276 283 288 291 290 282 289 289 289 289 292 288 292 299 303 306 310 308 315 317 316 315 315 315 314 313 312 310 308 305 304 301 297 294 293 292 292 291 290 290 289 290
278 279 281 287 289 291 280 282 289 289 290 292 292 296 297 300 302 309 310 309 316 315 313 313 314 313 311 311 310 310 309 305 302 299 297 296 294 291 290 289 288 288 287 286
280 276 276 288 289 283 287 290 290 291 293 295 298 301 302 303 307 311 312 315 316 315 315 316 316 314 311 309 309 308 306 303 300 298 296 294 293 289 288 288 287 286 285 285
282 280 286 286 288 293 292 290 292 292 296 298 298 301 303 307 311 313 313 314 315 313 313 314 315 313 309 309 308 306 304 300 297 296 295 293 289 287 286 287 286 285 286 285
284 287 286 288 292 293 293 292 294 297 298 299 299 303 306 308 310 312 312 311 312 312 310 309 311 310 309 309 306 303 300 299 298 297 294 291 289 287 286 286 286 286 285 284
285 287 287 290 291 292 292 294 296 299 299 300 302 304 305 305 307 309 310 311 311 309 308 307 306 303 302 302 300 298 297 296 294 291 288 286 286 285 285 284 286 285 282 285
281 289 287 288 291 293 292 292 296 298 299 303 304 304 305 305 306 303 302 303 302 301 301 300 300 299 300 300 298 296 293 292 290 288 286 287 286 286 290 289 289 289 289 288
287 291 290 291 292 294 293 295 298 299 301 302 304 305 303 301 302 302 301 300 299 299 299 298 296 296 297 297 296 292 290 289 288 287 287 287 287 287 286 289 290 290 289 289
292 291 289 292 290 294 295 297 299 301 302 302 303 305 302 302 302 301 299 299 299 298 297 296 293 292 293 292 290 289 288 289 287 287 287 287 287 287 287 286 285 285 288 288
291 292 292 293 294 294 297 298 297 298 301 300 302 301 301 300 299 299 300 299 298 296 295 295 292 290 291 290 289 288 287 287 287 287 287 287 286 285 285 285 285 285 285 286
291 292 293 293 293 294 295 296 297 298 300 300 300 300 301 300 299 299 299 299 296 294 295 293 290 290 290 289 289 288 288 289 288 288 287 286 286 285 285 285 284 284 283 282
289 289 291 292 292 294 295 297 298 298 299 300 300 300 300 300 299 298 298 298 297 295 294 292 290 291 291 290 290 290 290 290 290 289 287 286 287 286 285 284 284 283 282 283
293 293 294 294 293 294 295 297 298 299 299 300 301 300 299 298 297 297 298 298 297 295 295 294 294 294 294 293 292 291 290 289 288 287 287 287 286 286 286 285 284 284 282 283
293 294 294 294 295 295 296 297 297 298 298 298 298 297 298 298 298 298 298 296 295 294 294 296 295 295 294 293 292 291 289 288 287 287 287 286 286 285 285 284 283 282 283 283
293 295 295 295 296 296 297 298 297 296 297 297 297 296 295 296 297 296 295 293 294 294 295 295 295 293 293 292 291 290 289 288 287 287 286 285 285 284 284 284 284 283 283 282
294 294 294 295 295 297 297 298 296 295 296 297 296 295 295 296 297 296 294 292 292 294 294 294 294 292 292 291 291 290 289 288 287 287 286 285 285 284 283 284 284 283 282 281
294 295 295 295 295 296 297 297 296 296 296 296 296 295 294 293 293 292 293 291 292 291 293 293 292 290 290 289 290 289 288 288 286 286 285 285 284 284 283 283 283 282 281 280
295 295 295 295 295 296 297 297 296 296 295 295 295 295 294 294 294 292 290 292 292 291 292 291 287 287 287 290 289 289 288 287 286 285 284 284 284 283 283 282 282 282 281 280
295 295 296 296 296 296 295 296 297 296 296 296 296 296 295 293 294 295 293 290 288 290 290 289 288 287 289 290 289 288 287 286 286 285 284 284 283 283 283 282 281 281 281 282
296 296 295 295 294 294 295 297 296 296 296 296 295 296 296 297 295 294 294 292 289 290 290 287 287 287 290 289 288 288 287 286 286 286 285 283 282 283 282 282 281 281 281 281
295 295 295 296 296 296 296 296 295 296 296 295 295 295 295 296 296 295 293 292 293 290 291 291 291 290 289 289 288 287 286 285 286 285 285 284 283 283 282 282 282 282 282 281
296 294 296 295 296 296 296 296 295 295 296 296 294 295 295 295 293 292 290 292 293 293 291 292 291 290 290 289 289 288 288 287 286 286 285 285 284 284 283 283 282 282 282 282
Wind_Speed
12 19 20 21 20 18 16 17 13 19 17 17 9 11 19 20 15 9 9 12 10 10 10 7 8 13 18 15 17 16 19 20 19 18 19 19 18 17 17 13 11 11 12 10
7 19 18 21 13 10 15 12 11 14 19 8 8 11 14 16 15 9 13 12 14 14 10 6 12 15 20 16 18 19 20 21 21 20 19 19 17 17 14 14 10 9 11 9
7 7 10 7 6 5 13 13 10 8 5 12 13 15 15 18 18 18 15 10 17 16 7 13 14 21 21 19 18 20 23 22 21 21 19 17 19 20 12 12 10 10 9 11
8 8 3 4 5 5 13 19 8 11 13 16 15 17 20 23 19 16 11 11 14 9 14 17 19 23 23 21 20 22 22 22 22 23 21 15 15 18 13 11 11 10 10 12
5 3 8 8 5 9 11 11 2 12 15 19 18 18 23 17 7 7 4 6 9 14 25 21 23 25 25 23 22 23 24 24 21 21 24 16 18 15 9 12 13 11 11 10
3 5 5 2 14 12 10 6 16 19 20 21 21 10 15 8 9 7 5 3 8 18 25 27 24 26 26 22 21 22 21 25 24 23 22 22 15 14 9 13 13 12 12 9
4 5 7 6 12 12 3 7 22 20 23 21 16 10 16 18 20 9 7 3 12 21 26 27 28 29 25 23 20 20 20 19 23 24 22 19 16 12 14 14 14 12 11 7
3 4 7 7 4 6 7 12 16 20 22 20 19 18 13 15 16 7 11 13 21 22 22 24 26 29 25 24 21 22 23 17 23 22 18 14 16 12 15 14 13 10 9 8
5 6 3 1 7 7 13 17 13 19 19 19 17 16 15 9 4 18 20 18 21 22 23 20 20 26 29 20 21 23 23 22 19 20 17 16 15 15 12 11 9 7 8 8
3 3 5 11 6 11 15 17 21 19 18 16 13 11 5 11 12 16 16 21 21 25 28 24 23 23 25 23 22 23 23 22 19 18 16 15 11 10 11 8 7 8 8 8
7 10 10 3 10 14 19 18 19 18 16 13 11 5 13 17 15 13 16 20 19 21 24 24 22 22 22 21 23 22 21 18 17 12 14 14 13 9 7 4 5 8 4 6
5 4 7 11 13 18 16 19 18 16 16 12 7 11 17 19 16 14 17 17 19 22 25 23 23 21 20 19 22 23 20 15 12 12 13 13 12 11 17 13 15 13 13 11
5 5 11 14 14 11 15 17 13 14 11 8 9 14 19 18 19 21 18 20 20 22 23 22 22 20 18 19 20 20 19 16 14 16 14 13 11 11 12 13 20 20 19 19
4 8 6 4 7 13 14 14 11 8 9 10 8 13 16 15 18 20 19 18 20 22 22 21 21 20 17 19 21 20 18 23 15 13 12 11 11 11 10 11 11 9 14 13
5 6 8 10 7 8 9 7 10 9 10 13 12 14 18 15 18 16 16 18 19 20 20 21 22 19 17 19 20 20 17 13 13 11 10 11 9 9 9 10 10 9 8 12
5 6 8 4 7 9 8 10 10 9 11 13 14 15 18 16 15 16 15 16 18 17 18 19 20 18 18 19 20 17 15 22 16 12 11 10 9 9 9 8 9 8 8 7
2 4 4 4 6 8 8 7 8 8 10 12 12 14 17 16 15 16 16 16 18 18 18 18 18 17 18 18 19 14 13 12 17 11 10 9 9 8 8 8 8 8 6 4
1 2 3 3 4 5 6 7 9 10 10 12 13 13 15 13 14 16 17 18 19 19 17 17 17 18 19 18 17 13 12 11 10 10 10 9 9 8 8 8 9 8 5 5
1 1 3 4 4 5 6 8 10 11 12 13 16 15 14 12 13 16 16 18 18 18 13 15 19 19 17 17 16 12 11 12 11 9 9 11 10 8 7 7 7 6 7 6
2 4 6 5 6 6 7 9 12 12 11 14 15 14 14 10 11 14 15 15 10 9 15 17 17 16 16 16 16 11 12 12 12 10 9 9 9 8 7 8 7 7 6 6
4 5 7 5 7 8 8 9 12 12 10 12 16 14 13 11 12 13 16 12 7 11 15 18 14 11 11 13 13 11 12 12 10 10 9 8 9 7 6 6 7 6 5 4
5 5 7 8 7 7 8 10 12 12 12 14 14 15 15 14 15 14 11 7 7 13 10 10 10 13 12 16 10 10 10 10 8 8 7 8 8 7 7 6 6 4 4 4
6 7 7 8 7 7 9 10 11 12 12 12 14 14 12 9 9 10 10 7 6 13 9 9 13 14 14 11 10 10 10 10 8 8 7 7 7 7 6 6 5 5 4 5
6 7 7 7 7 8 9 10 10 10 12 12 12 11 11 11 10 6 7 8 9 15 10 10 13 14 13 9 9 10 9 8 8 7 7 9 6 6 6 6 5 4 5 5
5 8 8 7 7 4 7 8 9 10 11 11 11 10 9 6 8 6 8 7 8 11 10 11 15 14 10 9 9 9 9 7 7 8 8 8 6 6 6 6 5 5 5 5
6 5 6 6 7 6 6 5 6 7 8 8 7 7 7 7 7 5 5 6 4 11 10 9 9 10 9 9 10 10 8 8 9 8 8 7 7 6 7 6 5 5 5 5
6 5 7 6 5 6 6 6 8 8 7 7 8 7 8 8 7 4 8 5 6 6 8 8 9 10 9 10 10 9 7 7 8 8 7 7 6 7 6 6 5 5 5 5
Wind_Direction
245 260 267 267 275 280 269 260 256 272 266 261 259 294 299 289 284 266 268 275 270 266 235 216 133 153 143 148 146 135 124 120 116 119 119 116 110 113 102 106 100 111 108 89
271 260 261 268 263 277 273 287 300 283 269 297 326 326 316 318 311 289 267 269 275 272 216 178 137 141 135 140 138 131 120 115 114 113 113 110 110 94 101 96 100 105 90 99
267 334 308 252 165 310 311 295 307 291 310 314 314 309 300 293 283 277 273 288 272 250 185 128 127 125 127 132 124 119 116 115 115 113 109 106 109 101 102 97 103 87 90 94
289 325 348 175 108 357 324 293 353 337 315 315 302 294 278 271 262 267 295 277 283 134 112 108 117 114 117 117 121 119 117 118 118 112 100 100 96 98 105 109 97 94 88 81
290 271 276 175 34 339 324 292 81 322 324 315 306 296 277 264 242 270 261 306 289 129 116 119 120 115 115 120 122 123 122 118 115 112 115 107 101 105 110 106 93 88 71 76
309 277 277 42 329 314 299 265 351 333 316 308 306 285 281 297 328 307 163 138 128 127 118 115 112 110 109 112 120 119 120 118 119 120 108 112 111 113 121 99 91 83 78 66
266 272 280 359 325 315 13 316 322 312 303 300 304 289 279 301 305 291 154 102 146 122 117 119 114 108 103 104 105 104 104 107 119 107 107 105 114 126 101 91 88 81 80 64
263 270 282 9 333 5 312 298 298 300 303 306 306 292 289 276 267 246 144 146 132 120 116 111 120 114 110 103 105 107 103 109 106 108 107 116 108 102 94 95 94 93 93 78
218 245 308 17 311 308 308 306 305 306 304 301 301 299 301 274 10 112 117 132 117 116 107 103 111 114 109 111 115 109 112 107 104 106 111 106 109 103 94 92 96 104 97 94
320 244 285 308 310 321 318 316 310 303 304 304 301 301 42 60 61 106 117 112 117 114 104 104 104 104 109 118 115 111 112 114 112 106 103 101 96 87 89 102 111 105 105 92
254 285 324 342 338 321 318 317 314 317 318 315 326 51 79 72 64 62 107 108 108 105 104 105 104 105 107 111 112 108 106 105 101 99 95 87 69 75 89 56 100 114 107 111
261 310 303 290 312 311 313 316 316 320 326 353 4 79 80 86 68 68 75 87 96 98 96 100 101 101 106 112 111 113 109 107 109 102 96 93 95 87 62 86 86 92 92 96
272 316 295 288 296 307 313 312 321 325 340 8 38 79 67 78 95 84 82 87 92 97 98 97 97 102 106 108 107 104 109 111 103 100 102 110 112 115 114 78 77 80 80 79
274 295 284 333 318 315 313 315 319 346 33 39 64 87 81 84 90 90 89 90 94 97 100 104 102 98 103 105 104 105 105 104 103 107 112 114 112 110 107 105 98 81 62 84
295 307 299 298 311 322 315 332 6 17 56 57 53 76 83 77 80 91 99 101 102 104 104 107 105 105 108 107 105 107 102 104 110 113 111 106 101 96 104 105 102 102 99 75
319 324 320 355 343 333 340 5 27 36 67 71 73 76 85 80 81 91 93 101 106 104 108 107 105 113 113 111 106 100 103 113 114 115 114 111 110 108 108 108 104 104 88 66
310 338 356 23 347 339 1 13 33 43 72 75 80 84 90 87 96 94 100 101 99 101 102 105 110 113 108 106 108 111 112 113 117 113 108 111 113 105 103 105 101 96 83 90
20 330 11 43 343 350 22 41 62 57 69 83 84 82 77 83 99 104 103 104 101 97 101 107 112 111 110 112 112 115 113 112 110 105 110 108 108 108 105 103 96 106 108 92
73 58 61 68 7 25 31 63 70 73 76 82 82 78 81 82 98 102 104 100 101 105 104 107 107 108 107 110 113 109 111 113 108 105 109 112 104 101 105 107 115 110 107 106
93 98 98 83 50 50 57 79 82 79 86 94 90 81 78 71 87 89 86 81 80 103 111 107 106 108 107 107 106 111 114 113 114 115 112 113 114 112 102 102 106 97 96 87
77 111 126 109 66 51 60 93 93 87 87 97 102 94 90 87 88 88 88 93 77 99 106 106 109 103 107 112 108 114 116 116 118 123 116 115 112 108 98 99 91 93 101 114
109 95 107 108 78 73 65 96 96 95 97 96 96 97 94 88 86 79 61 79 111 102 102 103 103 104 112 106 108 108 110 113 113 113 117 111 107 104 95 96 101 108 122 141
123 114 104 114 97 83 82 93 91 98 98 99 104 94 83 85 90 101 98 353 109 95 96 102 111 105 104 109 112 115 114 113 115 112 108 111 111 110 114 121 124 138 139 123
100 125 104 110 112 105 98 95 96 94 93 91 92 94 96 103 91 94 94 63 59 105 116 119 108 101 105 110 114 113 112 116 116 110 109 103 104 117 124 129 132 134 120 113
116 127 122 117 133 121 104 108 101 97 99 93 87 84 87 59 85 72 60 62 28 112 112 113 107 107 111 114 115 112 112 117 122 125 126 128 130 135 133 130 141 139 125 114
130 116 140 137 121 125 118 120 127 121 121 113 111 107 102 111 100 74 73 56 37 118 121 122 115 108 111 115 117 119 122 128 133 133 133 133 137 137 135 136 136 133 127 126
131 103 116 104 107 123 127 122 127 127 123 121 123 131 131 130 130 124 123 151 170 145 109 118 121 118 123 123 123 128 134 136 133 134 136 138 140 137 138 139 142 140 127 126